Overview Statistics Trail Chart Weather Telemetry Raw packets
 

This is the latest recevied weather packets stored in our database for station/object N9BLE. If no packets are shown the sender has not sent any weather packets the latest 10 day(s).

<< 102 103 104 105 106 107 108 >>
Time Temp. Humidity Pressure Rain* Wind** Luminosity Snow
1777236627 17.78° C 62% 1019.1 hPa 0 mm - 532 W/m² -
1777236321 17.78° C 62% 1018.9 hPa 0 mm - 535 W/m² -
1777236018 17.22° C 61% 1019 hPa 0 mm - 535 W/m² -
1777235714 17.22° C 61% 1019.1 hPa 0 mm - 550 W/m² -
1777235412 17.78° C 61% 1019.3 hPa 0 mm - 540 W/m² -
1777235108 17.78° C 60% 1019.3 hPa 0 mm - 590 W/m² -
1777234803 17.78° C 61% 1019.4 hPa 0 mm - 609 W/m² -
1777234499 17.22° C 60% 1019.5 hPa 0 mm - 613 W/m² -
1777234200 17.78° C 61% 1019.5 hPa 0 mm - 612 W/m² -
1777233896 17.22° C 62% 1019.9 hPa 0 mm - 643 W/m² -
1777233593 17.22° C 63% 1019.8 hPa 0 mm - 648 W/m² -
1777233292 17.78° C 62% 1019.8 hPa 0 mm - 659 W/m² -
1777232988 17.22° C 63% 1019.8 hPa 0 mm - 665 W/m² -
1777232685 17.22° C 64% 1019.9 hPa 0 mm - 671 W/m² -
1777232383 17.22° C 65% 1020.3 hPa 0 mm - 659 W/m² -
1777232079 17.22° C 65% 1019.9 hPa 0 mm - 574 W/m² -
1777231777 17.22° C 64% 1020 hPa 0 mm - 691 W/m² -
1777231473 17.22° C 66% 1020 hPa 0 mm - 686 W/m² -
1777231170 17.22° C 66% 1020.2 hPa 0 mm - 699 W/m² -
1777230865 16.67° C 66% 1020.3 hPa 0 mm - 715 W/m² -
1777230561 16.67° C 66% 1020.4 hPa 0 mm - 802 W/m² -
1777230257 16.11° C 68% 1020.5 hPa 0 mm - 651 W/m² -
1777229954 15.56° C 69% 1020.4 hPa 0 mm - 329 W/m² -
1777229650 16.11° C 67% 1020.5 hPa 0 mm - 426 W/m² -
1777229347 16.67° C 66% 1020.5 hPa 0 mm - 785 W/m² -

* Rain latest hour (hover to see other rain measurements)
** Current wind speed in m/s (hover to see current wind gust speed)